Terminal Aerodrome Forecast
Issued by NWS

Home | Current Version | Previous Version | Text Only | Print | Product List | Glossary On
Versions: 1 2 3 4 5 6 7 8 9 10 11 12 13 14 15 16 17 18 19 20 21
507
FTUS46 KLOX 251137
TAFSBA
TAF
KSBA 251137Z 2512/2612 VRB03KT P6SM OVC080
     FM251300 VRB03KT P6SM VCSH BKN020 BKN040
     FM251600 VRB03KT P6SM BKN025 BKN040
     FM251900 24014KT P6SM SCT050
     FM252200 26014G22KT P6SM SCT060
     FM260400 35012KT P6SM SCT080
     FM260700 VRB04KT P6SM BKN030=

USA.gov is the U.S. government's official web portal to all federal, state and local government web resources and services.